GW1009 Weather Reports


time (UTC)temp
C
wind
direction
speed
KPH
gust
KPH
rain 1hr
cm
rain 24hr
cm
rain mn
cm
humidity
%
barometer
mb
20260902060550 18 134 4.8 14.5 0.00 0.41 0.00 95 1016.0
20260902060054 18 135 4.8 14.5 0.00 0.41 0.00 95 1016.0
20260902055553 18 130 6.4 14.5 0.00 0.43 0.00 95 1016.0
20260902055050 18 139 6.4 14.5 0.00 0.43 0.00 95 1015.8
20260902054552 18 109 6.4 11.3 0.00 0.43 0.00 95 1015.9
20260902054048 18 141 4.8 11.3 0.00 0.43 0.00 95 1016.0
20260902053548 18 109 4.8 11.3 0.00 0.43 0.00 95 1015.9
20260902053048 18 109 3.2 8.0 0.00 0.43 0.00 95 1015.8
20260902052546 18 101 3.2 9.7 0.00 0.43 0.00 95 1015.8
20260902052046 18 103 4.8 9.7 0.00 0.43 0.00 95 1015.8
20260902051546 18 116 1.6 4.8 0.00 0.43 0.00 95 1015.7
20260902051047 18 93 1.6 11.3 0.00 0.43 0.00 95 1015.8
20260902050545 18 99 3.2 9.7 0.00 0.43 0.00 95 1015.7
20260902050047 18 98 1.6 9.7 0.00 0.43 0.00 95 1015.7
20260902045543 18 129 1.6 9.7 0.00 0.43 0.00 95 1015.6
20260902045047 18 107 1.6 9.7 0.00 0.43 0.00 95 1015.5
20260902044543 18 111 1.6 9.7 0.00 0.43 0.00 95 1015.4
20260902044043 18 112 3.2 9.7 0.00 0.43 0.00 95 1015.3
20260902043545 18 100 3.2 6.4 0.00 0.43 0.00 95 1015.3
20260902043042 18 87 3.2 6.4 0.00 0.43 0.00 95 1015.4
20260902042542 18 133 1.6 3.2 0.00 0.43 0.00 95 1015.5
20260902042042 18 138 0.0 4.8 0.00 0.43 0.00 95 1015.5
20260902041541 18 138 1.6 6.4 0.00 0.43 0.00 95 1015.5
20260902041042 18 139 1.6 6.4 0.00 0.43 0.00 95 1015.4
20260902040542 18 137 1.6 4.8 0.00 0.43 0.00 94 1015.3
20260902040040 18 137 0.0 6.4 0.00 0.43 0.00 94 1015.3
20260902035538 18 137 3.2 6.4 0.00 0.43 0.43 94 1015.2
20260902035037 18 120 0.0 6.4 0.00 0.43 0.43 94 1015.1
20260902034537 18 101 1.6 6.4 0.00 0.43 0.43 94 1015.0
20260902034037 18 110 1.6 12.9 0.00 0.43 0.43 94 1015.0
20260902033539 18 134 6.4 12.9 0.00 0.43 0.43 94 1015.1
20260902033037 18 142 3.2 9.7 0.00 0.43 0.43 94 1015.1
20260902032537 18 96 4.8 9.7 0.00 0.43 0.43 94 1015.1
20260902032038 18 80 3.2 11.3 0.00 0.43 0.43 94 1015.2
20260902031536 18 102 3.2 11.3 0.00 0.43 0.43 94 1015.2
20260902031036 18 127 3.2 12.9 0.00 0.43 0.43 94 1015.1
20260902030535 18 150 4.8 12.9 0.00 0.43 0.43 94 1015.3
20260902030036 18 106 4.8 9.7 0.00 0.43 0.43 94 1015.3
20260902025535 18 99 3.2 12.9 0.00 0.43 0.43 94 1015.2
20260902025035 18 141 6.4 14.5 0.00 0.43 0.43 94 1015.1
20260902024535 18 132 6.4 14.5 0.00 0.43 0.43 94 1015.1
20260902024034 18 141 6.4 12.9 0.00 0.43 0.43 94 1015.0
20260902023534 18 134 6.4 16.1 0.00 0.43 0.43 94 1015.1
20260902023042 18 138 11.3 16.1 0.00 0.43 0.43 94 1015.1
20260902022534 18 123 11.3 16.1 0.00 0.43 0.43 94 1015.3
20260902022034 18 130 6.4 16.1 0.00 0.43 0.43 94 1015.4
20260902021534 18 106 4.8 11.3 0.00 0.43 0.43 94 1015.5
20260902021033 18 130 3.2 12.9 0.00 0.43 0.43 94 1015.6
20260902020533 18 91 6.4 12.9 0.00 0.43 0.43 94 1015.6
20260902020032 18 104 6.4 14.5 0.00 0.43 0.43 94 1015.6
20260902015531 18 101 6.4 14.5 0.00 0.43 0.43 94 1015.5
20260902015032 18 114 6.4 12.9 0.00 0.43 0.43 94 1015.3
20260902014541 18 112 4.8 9.7 0.00 0.43 0.43 94 1015.4
20260902014033 18 117 3.2 9.7 0.00 0.43 0.43 94 1015.4
20260902013531 18 148 3.2 9.7 0.00 0.43 0.43 94 1015.3
20260902013031 18 138 3.2 9.7 0.00 0.43 0.43 95 1015.4
20260902012531 18 107 1.6 11.3 0.00 0.43 0.43 94 1015.3
20260902012034 18 89 4.8 12.9 0.00 0.43 0.43 94 1015.1
20260902011542 18 79 6.4 12.9 0.00 0.43 0.43 94 1015.1
20260902011030 18 96 4.8 12.9 0.00 0.43 0.43 94 1015.0
20260902010533 18 113 6.4 12.9 0.00 0.43 0.43 94 1014.9
20260902010032 18 141 6.4 12.9 0.00 0.43 0.43 94 1014.9
20260902005532 18 147 4.8 11.3 0.00 0.43 0.43 94 1014.8
20260902005030 18 109 6.4 14.5 0.00 0.43 0.43 94 1014.8
20260902004530 18 112 4.8 14.5 0.00 0.43 0.43 94 1014.6
20260902004033 18 105 4.8 14.5 0.00 0.43 0.43 95 1014.5
20260902003529 18 112 6.4 14.5 0.00 0.43 0.43 94 1014.3
20260902003029 18 96 4.8 14.5 0.00 0.43 0.43 94 1014.2
20260902002528 18 89 6.4 16.1 0.00 0.43 0.43 94 1014.2
20260902002034 18 114 4.8 16.1 0.00 0.43 0.43 94 1014.0
20260902001528 18 113 6.4 16.1 0.00 0.43 0.43 94 1014.0
20260902001028 18 134 9.7 16.1 0.00 0.43 0.43 94 1014.0
20260902000528 18 124 4.8 11.3 0.00 0.43 0.43 94 1014.0
20260902000033 18 110 4.8 14.5 0.00 0.43 0.43 94 1014.0
20260901235527 18 113 4.8 14.5 0.00 0.43 0.43 94 1014.0
20260901235026 18 115 6.4 12.9 0.00 0.43 0.43 94 1014.0
20260901234526 18 139 4.8 12.9 0.00 0.43 0.43 94 1014.0
20260901234027 18 94 4.8 12.9 0.00 0.43 0.43 94 1014.0
20260901233527 18 115 8.0 12.9 0.00 0.43 0.43 94 1014.1
20260901233027 18 114 3.2 14.5 0.00 0.43 0.43 94 1013.9
20260901232526 18 97 6.4 14.5 0.00 0.43 0.43 94 1013.9
20260901232026 18 114 8.0 14.5 0.00 0.43 0.43 94 1013.9
20260901231526 18 117 4.8 16.1 0.00 0.43 0.43 94 1014.1
20260901231026 18 98 6.4 16.1 0.00 0.43 0.43 94 1014.0
20260901230525 18 140 8.0 14.5 0.00 0.43 0.43 94 1014.0
20260901230025 18 96 4.8 16.1 0.00 0.43 0.43 94 1014.0
20260901225526 18 106 9.7 16.1 0.00 0.43 0.43 93 1013.9
20260901225025 18 143 11.3 16.1 0.00 0.43 0.43 93 1014.0
20260901224525 18 145 8.0 17.7 0.00 0.43 0.43 93 1013.9
20260901224024 18 108 9.7 17.7 0.00 0.43 0.43 93 1014.0
20260901223524 18 128 9.7 16.1 0.00 0.43 0.43 93 1014.0
20260901223025 18 126 8.0 14.5 0.00 0.43 0.43 93 1013.9
20260901222525 18 115 4.8 14.5 0.00 0.43 0.43 93 1013.7
20260901222024 18 96 8.0 14.5 0.00 0.43 0.43 93 1013.8
20260901221524 18 117 8.0 14.5 0.00 0.43 0.43 93 1013.9
20260901221024 18 122 8.0 17.7 0.00 0.43 0.43 93 1013.9
20260901220522 18 125 8.0 17.7 0.00 0.43 0.43 93 1013.8
20260901220022 18 126 4.8 12.9 0.00 0.43 0.43 93 1013.9
20260901215522 18 97 6.4 12.9 0.00 0.43 0.43 93 1013.9
20260901215024 18 121 3.2 12.9 0.00 0.43 0.43 92 1013.8
20260901214537 18 109 6.4 12.9 0.00 0.43 0.43 92 1013.8
20260901214022 18 130 3.2 12.9 0.00 0.43 0.43 92 1014.0
20260901213524 18 99 3.2 12.9 0.00 0.43 0.43 92 1014.0
20260901213021 18 88 4.8 11.3 0.00 0.43 0.43 92 1014.0
20260901212521 18 121 1.6 12.9 0.00 0.43 0.43 92 1014.0
20260901212023 18 104 6.4 14.5 0.00 0.43 0.43 92 1014.0
20260901211521 18 108 6.4 14.5 0.00 0.43 0.43 92 1013.9
20260901211020 18 123 1.6 14.5 0.00 0.43 0.43 92 1013.8
20260901210520 18 114 4.8 14.5 0.00 0.43 0.43 92 1013.8
20260901210020 18 128 3.2 11.3 0.00 0.43 0.43 92 1013.7
20260901205520 18 107 3.2 11.3 0.00 0.43 0.43 92 1013.6
20260901205020 18 87 1.6 11.3 0.00 0.43 0.43 93 1013.7
20260901204526 18 138 0.0 11.3 0.00 0.43 0.43 93 1013.6
20260901204020 18 94 3.2 12.9 0.00 0.43 0.43 92 1013.6
20260901203520 18 107 1.6 14.5 0.00 0.43 0.43 92 1013.7
20260901203019 18 109 4.8 16.1 0.00 0.43 0.43 92 1013.7
20260901202518 18 134 6.4 16.1 0.00 0.43 0.43 92 1013.7
20260901202019 18 130 3.2 14.5 0.00 0.43 0.43 92 1013.7
20260901201518 18 111 4.8 14.5 0.00 0.43 0.43 92 1013.6
20260901201019 18 105 6.4 12.9 0.00 0.43 0.43 92 1013.5
20260901200520 18 90 4.8 12.9 0.00 0.43 0.43 92 1013.6
20260901200119 18 109 1.6 14.5 0.00 0.43 0.43 92 1013.6
20260901195517 18 99 6.4 14.5 0.00 0.43 0.43 92 1013.7
20260901195017 18 105 1.6 12.9 0.00 0.43 0.43 92 1013.8
20260901194518 18 92 3.2 14.5 0.00 0.43 0.43 92 1013.9
20260901194020 18 92 3.2 14.5 0.00 0.43 0.43 92 1013.8
20260901193517 19 118 4.8 12.9 0.00 0.43 0.43 92 1013.9
20260901193017 19 137 8.0 12.9 0.00 0.43 0.43 92 1013.9
20260901192517 19 64 3.2 14.5 0.00 0.43 0.43 92 1013.8
20260901192017 19 92 6.4 14.5 0.00 0.43 0.43 92 1013.8
20260901191533 19 146 4.8 16.1 0.00 0.43 0.43 92 1013.7
20260901191015 19 132 4.8 16.1 0.00 0.43 0.43 92 1013.6
20260901190518 19 114 4.8 12.9 0.00 0.43 0.43 92 1013.6
20260901190015 18 121 4.8 14.5 0.00 0.43 0.43 92 1013.5
20260901185515 18 126 3.2 12.9 0.00 0.43 0.43 92 1013.5
20260901185015 18 128 3.2 11.3 0.00 0.43 0.43 92 1013.5
20260901184514 18 119 3.2 16.1 0.00 0.43 0.43 93 1013.5
20260901184014 19 130 4.8 16.1 0.00 0.43 0.43 93 1013.3
20260901183513 19 91 4.8 12.9 0.00 0.43 0.43 93 1013.3
20260901183021 18 117 4.8 14.5 0.00 0.43 0.43 93 1013.3
20260901182514 19 106 8.0 14.5 0.00 0.43 0.43 93 1013.3
20260901182014 19 121 4.8 12.9 0.00 0.43 0.43 93 1013.3
20260901181514 19 105 6.4 14.5 0.00 0.43 0.43 93 1013.3
20260901181012 19 94 6.4 16.1 0.00 0.43 0.43 93 1013.2
20260901180517 19 106 12.9 16.1 0.00 0.43 0.43 93 1013.2
20260901180012 19 82 8.0 14.5 0.00 0.43 0.43 93 1013.2
20260901175512 19 89 9.7 14.5 0.00 0.43 0.43 93 1013.2
20260901175011 19 98 6.4 14.5 0.00 0.43 0.43 93 1013.2
20260901174511 19 82 3.2 9.7 0.00 0.43 0.43 93 1013.2
20260901174010 19 72 3.2 9.7 0.00 0.43 0.43 93 1013.2
20260901173514 19 88 4.8 9.7 0.00 0.43 0.43 93 1013.1
20260901173010 19 94 4.8 9.7 0.00 0.43 0.43 94 1013.0
20260901172509 19 105 1.6 6.4 0.00 0.43 0.43 94 1013.0
20260901172009 19 83 3.2 9.7 0.00 0.43 0.43 94 1013.0
20260901171509 19 79 4.8 11.3 0.00 0.43 0.43 94 1012.9
20260901171008 19 86 4.8 9.7 0.00 0.43 0.43 94 1013.0
20260901170508 19 86 3.2 6.4 0.00 0.43 0.43 94 1013.0
20260901170009 19 82 0.0 6.4 0.00 0.43 0.43 94 1013.0
20260901165508 19 82 1.6 6.4 0.00 0.43 0.43 94 1013.0
20260901165009 19 85 4.8 8.0 0.00 0.43 0.43 94 1012.9
20260901164508 19 74 4.8 8.0 0.00 0.43 0.43 94 1012.9
20260901164007 19 101 4.8 9.7 0.00 0.43 0.43 94 1012.9
20260901163507 19 113 3.2 6.4 0.00 0.43 0.43 94 1012.9
20260901163007 19 124 3.2 11.3 0.00 0.43 0.43 94 1012.9
20260901162508 19 131 4.8 11.3 0.00 0.43 0.43 94 1012.9
20260901162006 19 148 4.8 11.3 0.00 0.43 0.43 94 1012.9
20260901161507 19 115 3.2 9.7 0.00 0.43 0.43 94 1012.9
20260901161005 19 109 4.8 11.3 0.00 0.43 0.43 94 1012.9
20260901160504 18 105 4.8 12.9 0.00 0.43 0.43 94 1013.0
20260901160006 18 98 4.8 12.9 0.00 0.43 0.43 94 1013.0
20260901155504 18 153 6.4 14.5 0.00 0.43 0.43 94 1012.9
20260901155003 18 127 4.8 14.5 0.00 0.43 0.43 95 1012.9
20260901154503 18 126 4.8 14.5 0.00 0.43 0.43 95 1012.9
20260901154002 18 136 4.8 14.5 0.00 0.43 0.43 95 1012.9
20260901153503 18 138 6.4 11.3 0.03 0.43 0.43 95 1012.9
20260901153001 18 142 4.8 11.3 0.03 0.43 0.43 95 1013.0
20260901152601 18 137 3.2 12.9 0.03 0.43 0.43 95 1012.9
20260901152104 18 131 6.4 12.9 0.03 0.43 0.43 95 1012.9
20260901151600 18 146 4.8 12.9 0.03 0.43 0.43 95 1013.0
20260901151059 18 133 6.4 12.9 0.03 0.43 0.43 95 1013.0
20260901150557 18 107 4.8 12.9 0.03 0.43 0.43 95 1013.1
20260901150107 18 100 3.2 9.7 0.03 0.43 0.43 95 1013.3
20260901145557 18 106 3.2 11.3 0.03 0.43 0.43 95 1013.3
20260901145058 18 91 4.8 11.3 0.03 0.43 0.43 95 1013.2
20260901144559 18 94 3.2 9.7 0.03 0.43 0.43 95 1013.3
20260901144056 18 111 1.6 9.7 0.03 0.43 0.43 95 1013.3
20260901143556 18 136 1.6 9.7 0.00 0.41 0.41 95 1013.2
20260901143056 18 132 1.6 8.0 0.00 0.41 0.41 95 1013.2
20260901142556 18 94 4.8 8.0 0.00 0.41 0.41 95 1013.3
20260901142055 18 88 4.8 9.7 0.00 0.41 0.41 95 1013.3
20260901141602 18 96 4.8 9.7 0.00 0.41 0.41 95 1013.3
20260901141058 18 98 4.8 8.0 0.00 0.41 0.41 95 1013.0
20260901140554 18 94 4.8 8.0 0.00 0.41 0.41 95 1013.0
20260901140058 18 73 1.6 9.7 0.00 0.41 0.41 95 1012.9
20260901135556 18 103 3.2 9.7 0.00 0.41 0.41 95 1013.1
20260901135055 18 122 1.6 6.4 0.00 0.41 0.41 95 1013.0
20260901134554 18 105 1.6 11.3 0.00 0.41 0.41 95 1013.0
20260901134057 18 96 3.2 11.3 0.00 0.41 0.41 95 1012.9
20260901133553 18 108 4.8 9.7 0.00 0.41 0.41 95 1012.9
20260901133054 18 115 1.6 8.0 0.00 0.41 0.41 95 1013.0
20260901132553 18 130 4.8 11.3 0.00 0.41 0.41 95 1013.0
20260901132054 17 134 4.8 11.3 0.00 0.41 0.41 95 1013.1
20260901131553 18 146 1.6 8.0 0.00 0.41 0.41 95 1013.3
20260901131051 17 120 3.2 9.7 0.00 0.41 0.41 95 1013.5
20260901130550 17 103 3.2 8.0 0.00 0.41 0.41 95 1013.5
20260901130050 17 103 4.8 11.3 0.00 0.41 0.41 95 1013.5
20260901125550 17 123 3.2 11.3 0.00 0.41 0.41 95 1013.6
20260901125050 17 15 3.2 11.3 0.00 0.41 0.41 95 1013.5
20260901124551 17 121 3.2 9.7 0.00 0.41 0.41 95 1013.6
20260901124052 17 96 3.2 8.0 0.00 0.41 0.41 95 1013.6
20260901123550 17 134 3.2 9.7 0.00 0.41 0.41 95 1013.6
20260901123053 17 102 1.6 9.7 0.00 0.41 0.41 95 1013.7
20260901122550 17 114 3.2 11.3 0.00 0.41 0.41 95 1013.7
20260901122049 17 101 4.8 11.3 0.00 0.41 0.41 95 1013.7
20260901121551 17 102 3.2 8.0 0.00 0.41 0.41 95 1013.8
20260901121052 17 134 3.2 9.7 0.00 0.41 0.41 95 1014.0
20260901120552 17 142 3.2 8.0 0.00 0.41 0.41 95 1014.0
20260901120106 17 126 4.8 9.7 0.00 0.41 0.41 95 1014.0
20260901115549 17 139 4.8 11.3 0.00 0.41 0.41 95 1013.9
20260901115048 17 103 3.2 9.7 0.00 0.41 0.41 95 1013.9
20260901114552 17 76 4.8 8.0 0.00 0.41 0.41 94 1014.1
20260901114047 17 119 4.8 8.0 0.00 0.41 0.41 94 1013.9
20260901113547 18 103 3.2 6.4 0.03 0.41 0.41 95 1013.9
20260901113056 18 113 1.6 6.4 0.05 0.41 0.41 95 1013.9
20260901112546 18 111 0.0 6.4 0.05 0.41 0.41 95 1013.7
20260901112047 18 78 1.6 6.4 0.08 0.41 0.41 95 1013.8
20260901111547 18 102 3.2 6.4 0.08 0.41 0.41 95 1013.7
20260901111045 18 128 0.0 3.2 0.08 0.41 0.41 95 1013.7
20260901110546 18 219 0.0 0.0 0.08 0.41 0.41 94 1013.8
20260901110050 18 219 0.0 1.6 0.08 0.41 0.41 94 1013.9
20260901105546 18 219 0.0 1.6 0.08 0.41 0.41 95 1013.8
20260901105048 18 219 0.0 1.6 0.08 0.41 0.41 95 1014.0
20260901104545 18 219 0.0 1.6 0.08 0.41 0.41 95 1014.0
20260901104045 18 219 0.0 4.8 0.08 0.41 0.41 95 1013.7
20260901103544 18 221 0.0 4.8 0.05 0.38 0.38 95 1013.7
20260901103054 18 221 0.0 1.6 0.03 0.36 0.36 94 1013.8
20260901102544 18 221 0.0 1.6 0.00 0.33 0.33 94 1013.6
20260901102044 18 247 0.0 0.0 0.00 0.33 0.33 94 1013.9
20260901101544 18 247 0.0 0.0 0.00 0.33 0.33 94 1013.8
20260901101043 18 247 0.0 0.0 0.00 0.33 0.33 94 1013.8
20260901100546 18 247 0.0 0.0 0.00 0.33 0.33 94 1013.7
20260901100043 18 247 0.0 0.0 0.05 0.33 0.33 94 1013.7
20260901095543 18 247 0.0 1.6 0.10 0.33 0.33 94 1013.7
20260901095043 18 248 0.0 3.2 0.13 0.33 0.33 94 1013.6
20260901094547 18 248 0.0 3.2 0.15 0.33 0.33 94 1013.6
20260901094044 18 246 1.6 3.2 0.15 0.33 0.33 94 1013.7
20260901093542 18 177 0.0 4.8 0.18 0.33 0.33 94 1013.5
20260901093042 18 177 0.0 6.4 0.18 0.33 0.33 94 1013.5
20260901092542 18 165 1.6 8.0 0.18 0.33 0.33 94 1013.4
20260901092042 18 161 0.0 0.0 0.18 0.33 0.33 94 1013.4
20260901091542 18 161 0.0 3.2 0.18 0.33 0.33 94 1013.4
20260901091044 18 161 0.0 3.2 0.18 0.33 0.33 94 1013.4
20260901090541 18 161 0.0 3.2 0.18 0.33 0.33 94 1013.4
20260901090049 18 161 0.0 3.2 0.15 0.28 0.28 94 1013.5
20260901085539 18 163 0.0 1.6 0.10 0.23 0.23 94 1013.5
20260901085039 18 163 0.0 3.2 0.08 0.20 0.20 94 1013.4
20260901084539 18 163 0.0 9.7 0.05 0.18 0.18 94 1013.4
20260901084039 18 163 1.6 9.7 0.05 0.18 0.18 94 1013.4
20260901083539 17 191 3.2 9.7 0.03 0.15 0.15 94 1013.4
20260901083038 17 181 1.6 9.7 0.05 0.15 0.15 94 1013.4
20260901082538 17 185 4.8 9.7 0.05 0.15 0.15 94 1013.4
20260901082038 17 197 3.2 8.0 0.05 0.15 0.15 94 1013.4
20260901081538 17 132 0.0 4.8 0.05 0.15 0.15 94 1013.4
20260901081036 17 132 3.2 6.4 0.05 0.15 0.15 94 1013.5
20260901080536 17 148 1.6 6.4 0.10 0.15 0.15 94 1013.4
20260901080048 17 138 1.6 4.8 0.08 0.13 0.13 94 1013.4
20260901075535 17 134 1.6 4.8 0.08 0.13 0.13 94 1013.6
20260901075034 17 131 3.2 6.4 0.08 0.13 0.13 94 1013.5
20260901074534 17 142 3.2 6.4 0.08 0.13 0.13 94 1013.7
20260901074034 17 155 1.6 4.8 0.08 0.13 0.13 94 1013.7
20260901073533 17 158 0.0 4.8 0.08 0.13 0.13 94 1013.6
20260901073136 17 137 0.0 3.2 0.05 0.10 0.10 94 1013.7
20260901072532 17 137 0.0 0.0 0.05 0.10 0.10 94 1013.8
20260901072032 17 137 0.0 0.0 0.05 0.10 0.10 94 1013.9
20260901071535 17 137 0.0 1.6 0.05 0.10 0.10 94 1014.0
20260901071031 17 137 0.0 3.2 0.05 0.10 0.10 94 1013.9
20260901070530 17 137 0.0 4.8 0.00 0.05 0.05 94 1014.0
20260901070030 17 137 1.6 4.8 0.03 0.05 0.05 94 1014.1
20260901065531 17 136 1.6 4.8 0.03 0.05 0.05 94 1014.2
20260901065028 17 136 0.0 4.8 0.03 0.05 0.05 94 1014.2
20260901064530 17 136 0.0 6.4 0.05 0.05 0.05 94 1014.2
20260901064027 17 136 3.2 6.4 0.05 0.05 0.05 94 1014.3
20260901063527 17 132 1.6 4.8 0.05 0.05 0.05 94 1014.3
20260901063045 17 130 1.6 3.2 0.05 0.05 0.05 94 1014.4
20260901062526 17 129 0.0 3.2 0.05 0.05 0.05 94 1014.5
20260901062026 17 129 0.0 6.4 0.05 0.05 0.05 94 1014.5
20260901061526 17 129 3.2 6.4 0.05 0.05 0.05 94 1014.5
20260901061025 17 151 1.6 4.8 0.05 0.05 0.05 94 1014.6